Location: Newark
(40.3500°N, 15.2333°E)
Time: 07:57:30
(UTC+00:00)

Vanguard 1 - Visible Passes

Search period start: 21 January 2020 00:00
Search period end: 31 January 2020 00:00
Orbit: 651 x 3832 km, 34.2° (Epoch: 20 January)

Date Brightness Start Highest point End Pass type
(mag) Time Alt. Az. Time Alt. Az. Time Alt. Az.
21 Jan 10.4 18:31:20 10° WSW 18:36:18 51° S 18:36:36 50° SSE visible
22 Jan 10.6 16:33:30 10° SW 16:37:31 33° SSE 16:42:31 10° E visible
22 Jan 10.6 18:52:08 10° WSW 18:56:27 47° SSW 18:56:27 47° SSW visible
23 Jan 10.3 16:54:05 10° WSW 16:58:16 39° SSE 17:03:35 10° E visible
23 Jan 11.1 19:12:57 10° W 19:16:18 36° SW 19:16:18 36° SW visible
24 Jan 10.2 17:14:47 10° WSW 17:19:04 43° S 17:23:27 16° ESE visible
24 Jan 11.7 19:33:51 10° W 19:36:11 25° WSW 19:36:11 25° WSW visible
25 Jan 10.2 17:35:34 10° WSW 17:39:54 45° S 17:43:21 22° ESE visible
25 Jan 12.2 19:54:49 10° WSW 19:56:04 17° WSW 19:56:04 17° WSW visible
26 Jan 10.4 17:56:23 10° WSW 18:00:46 42° S 18:03:16 28° SE visible
26 Jan 12.6 20:15:57 10° WSW 20:15:59 10° WSW 20:15:59 10° WSW visible
27 Jan 10.6 18:17:15 10° WSW 18:21:38 38° S 18:23:12 32° SSE visible
28 Jan 10.9 18:38:11 10° WSW 18:42:31 32° SSW 18:43:11 31° S visible
29 Jan 10.3 16:39:30 10° WSW 16:43:39 40° S 16:48:25 10° ESE visible
29 Jan 11.3 18:59:16 10° WSW 19:03:11 25° SSW 19:03:11 25° SSW visible
30 Jan 10.4 17:00:24 10° WSW 17:04:28 37° S 17:09:17 10° ESE visible
30 Jan 11.8 19:20:36 10° WSW 19:23:14 18° SSW 19:23:14 18° SSW visible
